|
Cosmos 1151 Rocket - Orbit
|
Mt. Cuba Astronomical Observatory;
15:11:52
| Home | Info | Passes |
|
View from above orbital plane
|
View from above satellite
|
Ground track
|
The orbit data is extracted from the following two-line orbital elements,
1 11672U 80005B 13143.19358891 .00000450 00000-0 47717-4 0 6992
2 11672 082.5176 040.9617 0016862 201.9164 270.7590 14.86755230802507
| Epoch (UTC): | 23 May 2013 04:38:46 |
| Eccentricity: | 0.0016862 |
| inclination: | 82.5176° |
| perigee height: | 596 km |
| apogee height: | 620 km |
| right ascension of ascending node: | 40.9617° |
| argument of perigee: | 201.9164° |
| revolutions per day: | 14.86755230 |
| mean anomaly at epoch: | 270.7590° |
| orbit number at epoch: | 80250 |
The dashed part of the orbit path shows where the satellite is in the earth's shadow,
|
|